Bangor, ME

8:19 AM EDT on April 29, 2017 (GMT -0400)
Bangor International

Weather History for KBGR - February, 2013

Change the Weather History Date:

Thursday, February 7, 2013

  Actual Average Record
Temperature  
Mean Temperature 8 °F 19 °F  
Max Temperature 13 °F 29 °F 46 °F (2005)
Min Temperature 2 °F 8 °F -27 °F (1993)
Degree Days  
Heating Degree Days 57 46  
Month to date heating degree days 340 327  
Since 1 July heating degree days 4556 4734  
Cooling Degree Days 0 0  
Month to date cooling degree days 0 0  
Year to date cooling degree days 0 0  
Moisture  
Dew Point -14 °F    
Average Humidity 41    
Maximum Humidity 57    
Minimum Humidity 24    
Precipitation  
Precipitation 0.00 in 0.09 in 1.13 in (1953)
Month to date precipitation T 0.62  
Year to date precipitation 0.87 3.51  
Snow  
Snow 0.00 in 0.50 in 15.00 in (1978)
Month to date snowfall T 3.7  
Since 1 July snowfall 25.6 39.7  
Snow Depth 0.00 in    
Sea Level Pressure  
Sea Level Pressure 30.50 in    
Wind  
Wind Speed 11 mph (NNW)    
Max Wind Speed 22 mph    
Max Gust Speed 26 mph    
Visibility 10 miles    
Events      
T = Trace of Precipitation, MM = Missing Value Source: NWS Daily Summary

Daily Weather History Graph

Daily Weather History Graph

Search for Another Location

Airport or City:

Trip Planner

Search our weather history database for the weather conditions in past years. The results will help you decide how hot, cold, wet, or windy it might be!

Date:

Astronomy

Feb. 07, 2013 Rise Set
Actual Time 6:46 AM EST 4:52 PM EST
Civil Twilight 6:16 AM EST 5:23 PM EST
Nautical Twilight 5:41 AM EST 5:57 PM EST
Astronomical Twilight 5:07 AM EST 6:32 PM EST
Moon 4:27 AM EST (2/7) 2:09 PM EST (2/7)
Length of Visible Light 11h 07m
Length of Day
10h 05m
Waning Crescent, 9% of the Moon is Illuminated
Feb 7
Waning Crescent
Feb 10
New
Feb 17
First Quarter
Feb 25
Full
Mar 4
Last Quarter

Hourly Weather History & Observations

Time (EST) Temp. Windchill Dew Point Humidity Pressure Visibility Wind Dir Wind Speed Gust Speed Precip Events Conditions
12:53 AM 10.9 °F 0.2 °F -6.0 °F 47% 30.27 in 10.0 mi NW 6.9 mph - N/A   Clear
1:53 AM 8.1 °F -9.0 °F -6.0 °F 53% 30.30 in 10.0 mi NNW 15.0 mph - N/A   Clear
2:53 AM 7.0 °F -9.8 °F -8.0 °F 51% 30.32 in 10.0 mi NNW 13.8 mph - N/A   Clear
3:53 AM 5.0 °F -11.6 °F -9.0 °F 52% 30.35 in 10.0 mi NW 12.7 mph - N/A   Clear
4:53 AM 3.9 °F -11.3 °F -11.0 °F 50% 30.38 in 10.0 mi NW 10.4 mph 19.6 mph N/A   Clear
5:53 AM 1.9 °F -11.8 °F -11.0 °F 55% 30.42 in 10.0 mi NW 8.1 mph - N/A   Clear
6:53 AM 1.9 °F -14.7 °F -14.1 °F 47% 30.45 in 10.0 mi WNW 11.5 mph 17.3 mph N/A   Partly Cloudy
7:53 AM 1.9 °F -13.8 °F -13.0 °F 50% 30.49 in 10.0 mi NW 10.4 mph - N/A   Partly Cloudy
8:53 AM 3.0 °F -17.8 °F -16.1 °F 41% 30.52 in 10.0 mi NW 19.6 mph 26.5 mph N/A   Partly Cloudy
9:53 AM 3.9 °F -14.3 °F -16.1 °F 39% 30.54 in 10.0 mi NW 15.0 mph - N/A   Partly Cloudy
10:53 AM 6.1 °F -7.8 °F -17.0 °F 34% 30.56 in 10.0 mi NW 9.2 mph - N/A   Partly Cloudy
11:53 AM 8.1 °F -9.0 °F -18.0 °F 30% 30.55 in 10.0 mi NNW 15.0 mph - N/A   Clear
12:53 PM 10.0 °F -5.9 °F -18.0 °F 27% 30.54 in 10.0 mi NW 13.8 mph 20.7 mph N/A   Clear
1:53 PM 10.9 °F -5.9 °F -18.9 °F 25% 30.53 in 10.0 mi NNW 16.1 mph - N/A   Clear
2:53 PM 12.0 °F -3.4 °F -18.9 °F 24% 30.53 in 10.0 mi NW 13.8 mph 19.6 mph N/A   Clear
3:53 PM 10.9 °F -2.6 °F -18.9 °F 25% 30.54 in 10.0 mi NW 10.4 mph - N/A   Partly Cloudy
4:53 PM 9.0 °F -2.2 °F -17.0 °F 30% 30.55 in 10.0 mi North 6.9 mph - N/A   Partly Cloudy
5:53 PM 7.0 °F 0.1 °F -15.0 °F 36% 30.57 in 10.0 mi North 3.5 mph - N/A   Partly Cloudy
6:53 PM 6.1 °F -2.8 °F -15.0 °F 38% 30.58 in 10.0 mi North 4.6 mph - N/A   Partly Cloudy
7:53 PM 6.1 °F -7.8 °F -14.1 °F 39% 30.60 in 10.0 mi NE 9.2 mph - N/A   Clear
8:53 PM 3.9 °F -6.9 °F -15.0 °F 41% 30.61 in 10.0 mi NNE 5.8 mph - N/A   Clear
9:53 PM 3.9 °F -3.4 °F -15.0 °F 41% 30.62 in 10.0 mi Variable 3.5 mph - N/A   Clear
10:53 PM 3.9 °F -6.9 °F -14.1 °F 43% 30.62 in 10.0 mi NE 5.8 mph - N/A   Mostly Cloudy
11:53 PM 3.0 °F -10.5 °F -15.0 °F 43% 30.61 in 10.0 mi NE 8.1 mph - N/A   Overcast